map of AWZ home
AWZ - Airport
Location
City:  Ahwaz, Khuzestan, Iran
ICAO:OIAW
IATA:AWZ

Details
Type:Airport (Aerodrome, Airfield)
Use:Public/Civil
Latitude:3120'15"N (31.337431)
Longitude:4845'43"E (48.761950)
Datum:WGS 1984
Elevation:66 ft (20 m)
Variation:3.97E (WMM2015v2 magnetic declination)
0.06 annual change
Runways:1
Longest:11149 × 148 ft (3398 × 45 m), paved

Time
Time Zone:UTC+3:30 (DST+4:30)
Local Time:

Weather
METAR:OIAW 041400Z 35004KT CAVOK 19/03 Q1021 NOSIG
TAF:OIAW 041100Z 0412/0518 30006KT 7000 NSC
TEMPO 0412/0418 30018KT
BECMG 0421/0423 4000 BR FEW030
BECMG 0504/0506 7000
TEMPO 0410/0418 30018KT

Related Locations
Nearby:
Farthest:GMR: 11821 mi / 19024 km
Mangareva [Totegegie], Gambier Islands, PF

Find:

   beyond  
but within

Other Information
Maps:
NOTAMs:
Links:
Sources:

  
  • flag of Iran
  

Sectional Chart

Flight Planning
at skyvector.com

Satellite Image

Google Maps Satellite view

 

Copyright © 2004-2019 Karl L. Swartz. All rights reserved.
The Great Circle Mapper name and logo are trademarks of the Great Circle Mapper.
All other trademarks mentioned herein belong to their respective owners.
Please see credits for attibutions and further copyright information.

  Follow gcmap on Facebook Follow gcmap on Twitter GCmap on LinkedIn

hCard Microformat

Geo Microformat